Mansfield, OH

7:38 PM EDT on September 22, 2019 (GMT -0400)
Mansfield Lahm Regional

Weather History for KMFD - August, 2019

Change the Weather History Date:

Monday, August 19, 2019

  Actual Average Record
Temperature  
Mean Temperature 74 °F 70 °F  
Max Temperature 85 °F 80 °F 103 °F (1936)
Min Temperature 63 °F 60 °F 42 °F (1958)
Degree Days  
Heating Degree Days 0 0  
Month to date heating degree days 0 0  
Since 1 June heating degree days 30 61  
Since 1 July heating degree days 0 8  
Cooling Degree Days 9 5  
Month to date cooling degree days 170 113  
Year to date cooling degree days 724 503  
Since 1 June cooling degree days 656 457  
Growing Degree Days 24 (Base 50)    
Moisture  
Dew Point 67 °F    
Average Humidity 80    
Maximum Humidity 100    
Minimum Humidity 59    
Precipitation  
Precipitation 0.01 in 0.14 in 1.57 in (1969)
Month to date precipitation 1.07 2.72  
Year to date precipitation 35.56 29.18  
Snow  
Snow 0.00 in 0.00 in - ()
Month to date snowfall 0.0 0.0  
Since 1 June snowfall 0.0 0.0  
Since 1 July snowfall 0.0 0.0  
Snow Depth 0.00 in    
Sea Level Pressure  
Sea Level Pressure 30.05 in    
Wind  
Wind Speed 4 mph (WSW)    
Max Wind Speed 12 mph    
Max Gust Speed 15 mph    
Visibility 9 miles    
Events Rain , Thunderstorm    
T = Trace of Precipitation, MM = Missing Value Source: NWS Daily Summary

Daily Weather History Graph

Daily Weather History Graph

Search for Another Location

Airport or City:

Astronomy

Aug. 19, 2019 Rise Set
Actual Time 6:43 AM EDT 8:22 PM EDT
Civil Twilight 6:14 AM EDT 8:51 PM EDT
Nautical Twilight 5:39 AM EDT 9:26 PM EDT
Astronomical Twilight 5:01 AM EDT 10:04 PM EDT
Moon 10:42 PM EDT (8/19) 10:25 AM EDT (8/19)
Length of Visible Light 14h 37m
Length of Day
13h 38m
Waning Gibbous, 85% of the Moon is Illuminated
Aug 19
Waning Gibbous
Aug 23
Last Quarter
Aug 30
New
Sep 5
First Quarter
Sep 14
Full

Hourly Weather History & Observations

Time (EDT) Temp. Heat Index Dew Point Humidity Pressure Visibility Wind Dir Wind Speed Gust Speed Precip Events Conditions
12:14 AM 66.0 °F - 64.9 °F 96% 30.07 in 5.0 mi West 10.4 mph 21.9 mph 0.02 in Rain , Thunderstorm Rain
12:28 AM 66.0 °F - 64.9 °F 96% 30.05 in 5.0 mi WNW 9.2 mph - 0.07 in Rain , Thunderstorm Rain
12:52 AM 66.0 °F - 64.0 °F 93% 30.03 in 4.0 mi WNW 9.2 mph - 0.13 in Rain , Thunderstorm Heavy Thunderstorms and Rain
1:01 AM 66.0 °F - 64.9 °F 96% 30.03 in 2.5 mi North 11.5 mph - 0.09 in Rain , Thunderstorm Heavy Thunderstorms and Rain
1:04 AM 66.0 °F - 64.0 °F 93% 30.03 in 4.0 mi North 11.5 mph - 0.09 in Rain Light Rain
1:52 AM 66.0 °F - 64.0 °F 93% 29.95 in 10.0 mi ESE 4.6 mph - 0.09 in   Mostly Cloudy
2:52 AM 64.9 °F - 64.9 °F 100% 29.96 in 10.0 mi SSW 4.6 mph - N/A   Partly Cloudy
3:52 AM 64.9 °F - 64.0 °F 97% 29.96 in 10.0 mi South 6.9 mph - N/A   Clear
4:52 AM 64.0 °F - 64.0 °F 100% 29.97 in 10.0 mi SSW 5.8 mph - N/A   Clear
5:52 AM 64.0 °F - 63.0 °F 96% 29.99 in 10.0 mi South 6.9 mph - N/A   Clear
6:52 AM 63.0 °F - 63.0 °F 100% 30.00 in 10.0 mi SSW 4.6 mph - N/A   Clear
7:52 AM 66.0 °F - 64.0 °F 93% 30.02 in 10.0 mi SSW 4.6 mph - N/A   Clear
8:52 AM 70.0 °F - 66.0 °F 87% 30.04 in 10.0 mi SSW 5.8 mph - N/A   Clear
9:52 AM 73.9 °F - 66.0 °F 76% 30.05 in 10.0 mi WSW 6.9 mph - N/A   Clear
10:52 AM 75.9 °F - 68.0 °F 76% 30.05 in 10.0 mi WNW 3.5 mph - N/A   Clear
11:12 AM 79.0 °F - 69.1 °F 72% 30.09 in 1.8 mi SSW 5.8 mph - N/A   Haze
11:20 AM 78.1 °F - 69.1 °F 74% 30.09 in 2.5 mi WSW 3.5 mph - N/A   Haze
11:27 AM 78.1 °F - 68.0 °F 71% 30.10 in 9.0 mi West 3.5 mph - N/A   Mostly Cloudy
11:39 AM 78.1 °F - 69.1 °F 74% 30.10 in 10.0 mi Variable 3.5 mph - N/A   Mostly Cloudy
11:52 AM 80.1 °F 83.2 °F 70.0 °F 71% 30.08 in 10.0 mi Calm Calm - N/A   Mostly Cloudy
11:59 AM 80.1 °F 82.9 °F 69.1 °F 69% 30.10 in 10.0 mi Variable 3.5 mph - N/A   Overcast
12:27 PM 80.1 °F 82.9 °F 69.1 °F 69% 30.10 in 10.0 mi Variable 3.5 mph - N/A   Overcast
12:45 PM 80.1 °F 82.9 °F 69.1 °F 69% 30.10 in 10.0 mi WSW 4.6 mph - N/A   Overcast
12:52 PM 80.1 °F 82.9 °F 69.1 °F 69% 30.08 in 10.0 mi WSW 5.8 mph - N/A   Overcast
1:13 PM 80.1 °F 82.9 °F 69.1 °F 69% 30.10 in 10.0 mi SSW 4.6 mph - N/A   Overcast
1:26 PM 81.0 °F 84.1 °F 69.1 °F 67% 30.10 in 10.0 mi West 5.8 mph - N/A   Overcast
1:52 PM 80.1 °F 83.2 °F 70.0 °F 71% 30.08 in 10.0 mi Variable 5.8 mph - N/A   Overcast
2:05 PM 81.0 °F 84.4 °F 70.0 °F 69% 30.10 in 10.0 mi West 6.9 mph - N/A   Overcast
2:52 PM 82.9 °F 85.8 °F 68.0 °F 60% 30.07 in 10.0 mi WSW 5.8 mph - N/A   Mostly Cloudy
3:52 PM 82.9 °F 86.5 °F 69.1 °F 63% 30.06 in 10.0 mi West 6.9 mph - N/A   Scattered Clouds
4:52 PM 84.9 °F 88.8 °F 69.1 °F 59% 30.05 in 10.0 mi Variable 4.6 mph - N/A   Partly Cloudy
5:52 PM 84.0 °F 87.0 °F 68.0 °F 58% 30.04 in 10.0 mi West 5.8 mph - N/A   Clear
6:52 PM 82.9 °F 85.8 °F 68.0 °F 60% 30.04 in 10.0 mi WNW 4.6 mph - N/A   Clear
7:52 PM 81.0 °F 84.4 °F 70.0 °F 69% 30.03 in 10.0 mi Calm Calm - N/A   Clear
8:52 PM 75.9 °F - 70.0 °F 82% 30.04 in 10.0 mi Calm Calm - N/A   Clear
9:52 PM 73.9 °F - 70.0 °F 87% 30.06 in 10.0 mi Calm Calm - N/A   Clear
10:52 PM 73.0 °F - 70.0 °F 90% 30.07 in 10.0 mi NE 3.5 mph - N/A   Clear
11:52 PM 72.0 °F - 70.0 °F 93% 30.08 in 10.0 mi ESE 3.5 mph - N/A   Clear